Location: Newark
(7.0858°N, 171.3717°E)
Time: 17:41:07
(UTC+00:00)

Altair - Pass Details

Date: 05 December 2020
Orbit: 1501 x 1682 km, 47.2° (Epoch: 20 January)

Event Time Altitude Azimuth Distance (km) Brightness Sun altitude
Exits shadow 16:32:39 48° 258° (WSW) 1,935 7.6 -28.7°
Maximum altitude 16:34:06 51° 231° (SW) 1,870 7.7 -28.4°
Drops below altitude 10° 16:43:18 10° 157° (SSE) 3,793 10.1 -26.3°
Sets 16:46:35 0° 152° (SSE) 4,805 10.8 -25.5°
